NOAA 16 DEB

Satellite information

Favourite Embed

Satellite Type and Status

DEBRISIN ORBIT

Key statistics

Satellite NOAA 16 DEB at a glance.

Uptime

9055

Days in orbit

Revolutions

≈ 14.5

Per day

Orbit

SSO

Sun Synchronous Orbit

Inclination

99.0

Latest

Satellite identification and parameters

Extended collection of information and parameters for NOAA 16 DEB.

Object identification

Identified? True

Debris? True

Object name: NOAA 16 DEB

International designator: 2000-055SV

Object number (NORAD): 42401

Object ID (CCSDS): 42401

Country: UNITED STATES OF AMERICA (US)

Current information (Y/N): Y

RCS size: SMALL

Orbital parameters

Period: 99.113 minutes

Inclination: 98.9754 deg

SMA: 7094.395 km

Apoapsis: 751.335 km

Periapsis: 681.184 km

RAAN: 34.3528 deg

Eccentricy: 0.0049441

Argument of periapsis: 14.6208 deg

Mean anomaly: 345.6403 deg

Mean motion: 14.52879956 rev/day

Mean motion (dot): 0.00005817 rev/day2

B* drag term: 0.0014026 1/REarth

Two-line elements (TLE)

Creation date: July 6, 2025, 6:05 p.m.

Reference frame: TEME

Reference center: EARTH

Epoch: July 6, 2025, 10:04 a.m. UTC

TLE line 0: 0 NOAA 16 DEB

TLE line 1: 1 42401U 00055SV 25187.41993271 .00005817 00000-0 14026-2 0 9996

TLE line 2: 2 42401 98.9754 34.3528 0049441 14.6208 345.6403 14.52879956488105

Live tracking on map

Real-time ground track for satellite NOAA 16 DEB.

In-orbit conjunctions

A list of the most updated potential collisions computed for object NOAA 16 DEB.

Target Orbit TCA Probability of collision Miss distance Type
COSMOS 841 LEO 2025-02-22 04:36:34 0.0002516436 196.0 (m) PAYLOAD
ATLAS 41E R/B SSO 2025-01-24 13:40:13 0.0001098165 550.0 (m) ROCKET BODY
COSMOS 468 LEO 2024-12-26 13:10:31 0.0002768331 789.0 (m) PAYLOAD
COSMOS 1814 LEO 2024-10-11 09:28:19 0.0002222988 421.0 (m) PAYLOAD

Associated space launch

The NOAA K, L and M POES satellites begin the fifth generation of improved environmental monitoring in support of NOAA missions. The instrument payload has significant improvements and additions/deletions. The instrument changes have effected the spacecraft subsystems and data formats.

NOAA 16 DEB was lifted into orbit during the mission ‘Titan II SLV | NOAA 16’, on board a Titan II SLV space rocket.

The launch took place on Sept. 21, 2000, 10:22 a.m. from Space Launch Complex 4W.

For more information about the launch, click the button.

Launch to space Titan II SLV | NOAA 16
Titan II SLV | NOAA 16

Agency: N/A

Status: Launch Successful

Launch date: Sept. 21, 2000, 10:22 a.m. UTC

Rocket: Titan II SLV

Launch pad: Space Launch Complex 4W

Location: Vandenberg SFB, CA, USA

...

Latest news about this satellite

There are no fresh news available about this satellite. Check back as we update our databases every day.


Newsletter sign-up

Weekly statistics, charts and insights to help you stay on top of the space industry.